| time (UTC) | temp F | wind direction | speed MPH | gust MPH | rain 1hr in | rain 24hr in | rain mn in | humidity % | barometer mb |
| 20260510085033 | 51 | 244 | 1.0 | 3.0 | 0.00 | 0.00 | 0.00 | 87 | 1006.9 |
| 20260510084545 | 51 | 240 | 1.0 | 6.0 | 0.00 | 0.00 | 0.00 | 87 | 1006.8 |
| 20260510084032 | 51 | 239 | 2.0 | 6.0 | 0.00 | 0.00 | 0.00 | 87 | 1006.8 |
| 20260510083534 | 52 | 229 | 3.0 | 6.0 | 0.00 | 0.00 | 0.00 | 86 | 1006.8 |
| 20260510083037 | 52 | 221 | 1.0 | 4.0 | 0.00 | 0.00 | 0.00 | 86 | 1006.7 |
| 20260510082532 | 52 | 218 | 1.0 | 4.0 | 0.00 | 0.00 | 0.00 | 86 | 1006.7 |
| 20260510082031 | 52 | 149 | 1.0 | 5.0 | 0.00 | 0.00 | 0.00 | 86 | 1006.8 |
| 20260510081535 | 52 | 289 | 1.0 | 7.0 | 0.00 | 0.00 | 0.00 | 86 | 1006.9 |
| 20260510081031 | 52 | 155 | 1.0 | 6.0 | 0.00 | 0.00 | 0.00 | 85 | 1007.0 |
| 20260510080531 | 52 | 224 | 3.0 | 6.0 | 0.00 | 0.00 | 0.00 | 85 | 1007.1 |
| 20260510080030 | 52 | 226 | 2.0 | 5.0 | 0.00 | 0.00 | 0.00 | 85 | 1007.2 |
| 20260510075530 | 52 | 182 | 1.0 | 7.0 | 0.00 | 0.00 | 0.00 | 85 | 1007.2 |
| 20260510075033 | 52 | 211 | 2.0 | 7.0 | 0.00 | 0.00 | 0.00 | 85 | 1007.1 |
| 20260510074529 | 53 | 225 | 3.0 | 7.0 | 0.00 | 0.00 | 0.00 | 84 | 1007.3 |
| 20260510074029 | 53 | 239 | 1.0 | 8.0 | 0.00 | 0.00 | 0.00 | 84 | 1007.2 |
| 20260510073529 | 53 | 182 | 2.0 | 8.0 | 0.00 | 0.00 | 0.00 | 83 | 1007.2 |
| 20260510073044 | 53 | 186 | 1.0 | 6.0 | 0.00 | 0.00 | 0.00 | 83 | 1007.0 |
| 20260510072528 | 53 | 202 | 1.0 | 11.0 | 0.00 | 0.00 | 0.00 | 82 | 1007.1 |
| 20260510072031 | 53 | 232 | 3.0 | 11.0 | 0.00 | 0.00 | 0.00 | 82 | 1007.0 |
| 20260510071529 | 53 | 261 | 3.0 | 12.0 | 0.00 | 0.00 | 0.00 | 83 | 1006.9 |
| 20260510071027 | 53 | 224 | 3.0 | 13.0 | 0.00 | 0.00 | 0.00 | 82 | 1006.8 |
| 20260510070526 | 53 | 235 | 4.0 | 13.0 | 0.00 | 0.00 | 0.00 | 82 | 1006.6 |
| 20260510070027 | 53 | 231 | 3.0 | 11.0 | 0.00 | 0.00 | 0.00 | 82 | 1006.7 |
| 20260510065526 | 53 | 226 | 3.0 | 10.0 | 0.00 | 0.00 | 0.00 | 82 | 1006.9 |
| 20260510065028 | 53 | 190 | 3.0 | 13.0 | 0.00 | 0.00 | 0.00 | 81 | 1007.1 |
| 20260510064525 | 53 | 242 | 4.0 | 13.0 | 0.00 | 0.00 | 0.00 | 81 | 1007.0 |
| 20260510064025 | 53 | 214 | 4.0 | 9.0 | 0.00 | 0.00 | 0.00 | 81 | 1007.0 |
| 20260510063524 | 53 | 227 | 3.0 | 8.0 | 0.00 | 0.00 | 0.00 | 79 | 1007.0 |
| 20260510063024 | 53 | 227 | 2.0 | 9.0 | 0.00 | 0.00 | 0.00 | 79 | 1007.0 |
| 20260510062524 | 53 | 211 | 5.0 | 12.0 | 0.00 | 0.00 | 0.00 | 79 | 1006.9 |
| 20260510062024 | 53 | 228 | 4.0 | 10.0 | 0.00 | 0.00 | 0.00 | 79 | 1007.0 |
| 20260510061524 | 53 | 204 | 4.0 | 10.0 | 0.00 | 0.00 | 0.00 | 79 | 1006.9 |
| 20260510061023 | 53 | 130 | 3.0 | 10.0 | 0.00 | 0.00 | 0.00 | 79 | 1006.9 |
| 20260510060523 | 53 | 127 | 3.0 | 7.0 | 0.00 | 0.00 | 0.00 | 79 | 1006.8 |
| 20260510060034 | 53 | 234 | 2.0 | 12.0 | 0.00 | 0.00 | 0.00 | 79 | 1006.9 |
| 20260510055522 | 53 | 192 | 4.0 | 12.0 | 0.00 | 0.00 | 0.00 | 79 | 1006.9 |
| 20260510055022 | 53 | 232 | 2.0 | 10.0 | 0.00 | 0.00 | 0.00 | 79 | 1007.0 |
| 20260510054522 | 53 | 196 | 2.0 | 8.0 | 0.00 | 0.00 | 0.00 | 78 | 1007.0 |
| 20260510054022 | 53 | 192 | 2.0 | 13.0 | 0.00 | 0.00 | 0.00 | 78 | 1007.1 |
| 20260510053521 | 53 | 196 | 5.0 | 13.0 | 0.00 | 0.00 | 0.00 | 78 | 1007.1 |
| 20260510053021 | 53 | 228 | 3.0 | 11.0 | 0.00 | 0.00 | 0.00 | 78 | 1007.1 |
| 20260510052521 | 54 | 222 | 4.0 | 15.0 | 0.00 | 0.00 | 0.00 | 78 | 1007.1 |
| 20260510052024 | 54 | 191 | 4.0 | 15.0 | 0.00 | 0.00 | 0.00 | 77 | 1007.0 |
| 20260510051521 | 54 | 342 | 4.0 | 14.0 | 0.00 | 0.00 | 0.00 | 77 | 1007.2 |
| 20260510051019 | 53 | 219 | 5.0 | 11.0 | 0.00 | 0.00 | 0.00 | 78 | 1007.0 |
| 20260510050519 | 53 | 259 | 5.0 | 14.0 | 0.00 | 0.00 | 0.00 | 78 | 1007.1 |
| 20260510050018 | 53 | 221 | 5.0 | 14.0 | 0.00 | 0.00 | 0.00 | 78 | 1006.9 |
| 20260510045517 | 53 | 148 | 4.0 | 12.0 | 0.00 | 0.00 | 0.00 | 78 | 1006.9 |
| 20260510045016 | 53 | 253 | 3.0 | 12.0 | 0.00 | 0.00 | 0.00 | 79 | 1006.8 |
| 20260510044514 | 52 | 221 | 2.0 | 9.0 | 0.00 | 0.00 | 0.00 | 79 | 1006.8 |
| 20260510044013 | 52 | 122 | 2.0 | 9.0 | 0.00 | 0.00 | 0.00 | 80 | 1006.8 |
| 20260510043514 | 51 | 151 | 1.0 | 8.0 | 0.00 | 0.00 | 0.00 | 80 | 1006.8 |
| 20260510043012 | 51 | 178 | 2.0 | 6.0 | 0.00 | 0.00 | 0.00 | 80 | 1006.7 |
| 20260510042511 | 51 | 134 | 1.0 | 5.0 | 0.00 | 0.00 | 0.00 | 80 | 1006.7 |
| 20260510042010 | 51 | 228 | 2.0 | 5.0 | 0.00 | 0.00 | 0.00 | 81 | 1006.8 |
| 20260510041509 | 51 | 203 | 1.0 | 4.0 | 0.00 | 0.00 | 0.00 | 81 | 1006.7 |
| 20260510041011 | 51 | 94 | 0.0 | 5.0 | 0.00 | 0.00 | 0.00 | 81 | 1006.5 |
| 20260510040507 | 51 | 94 | 1.0 | 6.0 | 0.00 | 0.00 | 0.00 | 81 | 1006.3 |
| 20260510040006 | 51 | 125 | 1.0 | 6.0 | 0.00 | 0.00 | 0.00 | 81 | 1006.2 |
| 20260510035505 | 51 | 150 | 1.0 | 7.0 | 0.00 | 0.00 | 0.00 | 81 | 1006.2 |
| 20260510035005 | 51 | 140 | 1.0 | 8.0 | 0.00 | 0.00 | 0.00 | 80 | 1006.3 |
| 20260510034504 | 51 | 195 | 2.0 | 5.0 | 0.00 | 0.00 | 0.00 | 80 | 1006.4 |
| 20260510034003 | 51 | 126 | 1.0 | 3.0 | 0.00 | 0.00 | 0.00 | 80 | 1006.6 |
| 20260510033504 | 51 | 225 | 1.0 | 3.0 | 0.00 | 0.00 | 0.00 | 80 | 1006.8 |
| 20260510033003 | 51 | 225 | 1.0 | 3.0 | 0.00 | 0.00 | 0.00 | 80 | 1006.9 |
| 20260510032502 | 51 | 242 | 1.0 | 3.0 | 0.00 | 0.00 | 0.00 | 80 | 1006.9 |
| 20260510032004 | 51 | 208 | 1.0 | 6.0 | 0.00 | 0.00 | 0.00 | 79 | 1007.0 |
| 20260510031502 | 51 | 238 | 2.0 | 6.0 | 0.00 | 0.00 | 0.00 | 79 | 1007.0 |
| 20260510031002 | 51 | 207 | 1.0 | 6.0 | 0.00 | 0.00 | 0.00 | 79 | 1006.9 |
| 20260510030502 | 51 | 207 | 1.0 | 7.0 | 0.00 | 0.00 | 0.00 | 79 | 1006.8 |
| 20260510030001 | 52 | 249 | 1.0 | 7.0 | 0.00 | 0.00 | 0.00 | 79 | 1006.9 |
| 20260510025601 | 52 | 223 | 1.0 | 4.0 | 0.00 | 0.00 | 0.00 | 78 | 1006.9 |
| 20260510025100 | 52 | 214 | 2.0 | 6.0 | 0.00 | 0.00 | 0.00 | 78 | 1007.0 |
| 20260510024601 | 52 | 221 | 3.0 | 6.0 | 0.00 | 0.00 | 0.00 | 78 | 1007.1 |
| 20260510024059 | 52 | 244 | 1.0 | 6.0 | 0.00 | 0.00 | 0.00 | 78 | 1007.0 |
| 20260510023559 | 52 | 237 | 1.0 | 7.0 | 0.00 | 0.00 | 0.00 | 78 | 1007.0 |
| 20260510023059 | 52 | 126 | 2.0 | 7.0 | 0.00 | 0.00 | 0.00 | 78 | 1007.1 |
| 20260510022559 | 52 | 108 | 2.0 | 8.0 | 0.00 | 0.00 | 0.00 | 78 | 1007.1 |
| 20260510022059 | 52 | 139 | 2.0 | 9.0 | 0.00 | 0.00 | 0.00 | 77 | 1006.9 |
| 20260510021559 | 52 | 122 | 3.0 | 9.0 | 0.00 | 0.00 | 0.00 | 77 | 1006.9 |
| 20260510021058 | 52 | 113 | 3.0 | 7.0 | 0.00 | 0.00 | 0.00 | 77 | 1006.8 |
| 20260510020558 | 52 | 51 | 2.0 | 9.0 | 0.00 | 0.00 | 0.00 | 77 | 1006.9 |
| 20260510020057 | 52 | 130 | 3.0 | 8.0 | 0.00 | 0.00 | 0.00 | 77 | 1007.1 |
| 20260510015556 | 52 | 159 | 2.0 | 10.0 | 0.00 | 0.00 | 0.00 | 77 | 1007.2 |
| 20260510015055 | 52 | 105 | 3.0 | 10.0 | 0.00 | 0.00 | 0.00 | 76 | 1007.1 |
| 20260510014600 | 52 | 236 | 3.0 | 8.0 | 0.00 | 0.00 | 0.00 | 77 | 1007.3 |
| 20260510014055 | 52 | 238 | 2.0 | 8.0 | 0.00 | 0.00 | 0.00 | 76 | 1007.2 |
| 20260510013555 | 52 | 207 | 3.0 | 8.0 | 0.00 | 0.00 | 0.00 | 76 | 1007.2 |
| 20260510013109 | 52 | 194 | 2.0 | 9.0 | 0.00 | 0.00 | 0.00 | 76 | 1007.2 |
| 20260510012554 | 52 | 130 | 2.0 | 9.0 | 0.00 | 0.00 | 0.00 | 76 | 1007.4 |
| 20260510012054 | 52 | 200 | 1.0 | 9.0 | 0.00 | 0.00 | 0.00 | 76 | 1007.4 |
| 20260510011554 | 52 | 164 | 1.0 | 6.0 | 0.00 | 0.00 | 0.00 | 76 | 1007.3 |
| 20260510011053 | 52 | 105 | 2.0 | 5.0 | 0.00 | 0.00 | 0.00 | 76 | 1007.4 |
| 20260510010553 | 51 | 239 | 1.0 | 5.0 | 0.00 | 0.00 | 0.00 | 76 | 1007.4 |
| 20260510010053 | 51 | 250 | 2.0 | 5.0 | 0.00 | 0.00 | 0.00 | 76 | 1007.3 |
| 20260510005553 | 51 | 164 | 2.0 | 7.0 | 0.00 | 0.00 | 0.00 | 76 | 1007.5 |
| 20260510005052 | 51 | 144 | 1.0 | 10.0 | 0.00 | 0.00 | 0.00 | 76 | 1007.5 |
| 20260510004554 | 51 | 163 | 3.0 | 10.0 | 0.00 | 0.00 | 0.00 | 76 | 1007.5 |
| 20260510004052 | 51 | 180 | 1.0 | 5.0 | 0.00 | 0.00 | 0.00 | 76 | 1007.6 |
| 20260510003552 | 51 | 138 | 2.0 | 6.0 | 0.00 | 0.00 | 0.00 | 76 | 1007.7 |
| 20260510003054 | 51 | 223 | 2.0 | 6.0 | 0.00 | 0.00 | 0.00 | 76 | 1007.7 |
| 20260510002551 | 52 | 229 | 1.0 | 6.0 | 0.00 | 0.00 | 0.00 | 76 | 1007.8 |
| 20260510002051 | 52 | 225 | 1.0 | 6.0 | 0.00 | 0.00 | 0.00 | 76 | 1007.6 |
| 20260510001554 | 52 | 134 | 1.0 | 6.0 | 0.00 | 0.00 | 0.00 | 76 | 1007.6 |
| 20260510001051 | 52 | 126 | 1.0 | 7.0 | 0.00 | 0.00 | 0.00 | 76 | 1007.6 |
| 20260510000551 | 52 | 113 | 2.0 | 4.0 | 0.00 | 0.00 | 0.00 | 77 | 1007.6 |
| 20260510000051 | 52 | 228 | 0.0 | 4.0 | 0.00 | 0.00 | 0.00 | 77 | 1007.6 |
| 20260509235550 | 52 | 156 | 1.0 | 4.0 | 0.00 | 0.00 | 0.00 | 77 | 1007.7 |
| 20260509235050 | 52 | 215 | 2.0 | 4.0 | 0.00 | 0.00 | 0.00 | 77 | 1007.7 |
| 20260509234550 | 52 | 222 | 1.0 | 3.0 | 0.00 | 0.00 | 0.00 | 77 | 1007.6 |
| 20260509234050 | 52 | 222 | 1.0 | 4.0 | 0.00 | 0.00 | 0.00 | 76 | 1007.7 |
| 20260509233553 | 52 | 224 | 1.0 | 4.0 | 0.00 | 0.00 | 0.00 | 76 | 1007.7 |
| 20260509233053 | 52 | 231 | 1.0 | 7.0 | 0.00 | 0.00 | 0.00 | 75 | 1007.7 |
| 20260509232551 | 52 | 189 | 1.0 | 7.0 | 0.00 | 0.00 | 0.00 | 75 | 1007.7 |
| 20260509232049 | 52 | 215 | 1.0 | 6.0 | 0.00 | 0.00 | 0.00 | 75 | 1007.7 |
| 20260509231556 | 52 | 212 | 1.0 | 6.0 | 0.00 | 0.00 | 0.00 | 75 | 1007.6 |
| 20260509231049 | 52 | 145 | 2.0 | 7.0 | 0.00 | 0.00 | 0.00 | 74 | 1007.7 |
| 20260509230549 | 52 | 90 | 2.0 | 5.0 | 0.00 | 0.00 | 0.00 | 74 | 1007.6 |
| 20260509230049 | 52 | 222 | 1.0 | 6.0 | 0.00 | 0.00 | 0.00 | 74 | 1007.5 |
| 20260509225549 | 52 | 209 | 2.0 | 12.0 | 0.00 | 0.00 | 0.00 | 73 | 1007.5 |
| 20260509225047 | 52 | 238 | 2.0 | 8.0 | 0.00 | 0.00 | 0.00 | 73 | 1007.6 |
| 20260509224547 | 52 | 116 | 2.0 | 7.0 | 0.00 | 0.00 | 0.00 | 73 | 1007.6 |
| 20260509224046 | 52 | 111 | 2.0 | 7.0 | 0.00 | 0.00 | 0.00 | 73 | 1007.6 |
| 20260509223546 | 52 | 104 | 1.0 | 7.0 | 0.00 | 0.00 | 0.00 | 73 | 1007.7 |
| 20260509223046 | 52 | 148 | 1.0 | 7.0 | 0.00 | 0.00 | 0.00 | 73 | 1007.7 |
| 20260509222546 | 52 | 146 | 2.0 | 9.0 | 0.00 | 0.00 | 0.00 | 73 | 1007.7 |
| 20260509222045 | 52 | 78 | 3.0 | 9.0 | 0.00 | 0.00 | 0.00 | 73 | 1007.8 |
| 20260509221545 | 52 | 136 | 3.0 | 8.0 | 0.00 | 0.00 | 0.00 | 73 | 1007.9 |
| 20260509221045 | 52 | 138 | 1.0 | 9.0 | 0.00 | 0.00 | 0.00 | 73 | 1007.9 |
| 20260509220544 | 52 | 122 | 1.0 | 11.0 | 0.00 | 0.00 | 0.00 | 73 | 1007.9 |
| 20260509220051 | 52 | 169 | 3.0 | 11.0 | 0.00 | 0.00 | 0.00 | 73 | 1007.8 |
| 20260509215545 | 52 | 104 | 3.0 | 10.0 | 0.00 | 0.00 | 0.00 | 72 | 1007.8 |
| 20260509215044 | 52 | 183 | 2.0 | 10.0 | 0.00 | 0.00 | 0.00 | 73 | 1007.8 |
| 20260509214544 | 52 | 269 | 1.0 | 11.0 | 0.00 | 0.00 | 0.00 | 73 | 1007.8 |
| 20260509214045 | 52 | 171 | 2.0 | 11.0 | 0.00 | 0.00 | 0.00 | 72 | 1008.0 |
| 20260509213542 | 52 | 157 | 4.0 | 9.0 | 0.00 | 0.00 | 0.00 | 72 | 1008.0 |
| 20260509213042 | 52 | 119 | 3.0 | 8.0 | 0.00 | 0.00 | 0.00 | 72 | 1008.1 |
| 20260509212544 | 52 | 105 | 2.0 | 11.0 | 0.00 | 0.00 | 0.00 | 72 | 1008.0 |
| 20260509212041 | 52 | 126 | 3.0 | 11.0 | 0.00 | 0.00 | 0.00 | 72 | 1008.1 |
| 20260509211546 | 52 | 221 | 2.0 | 10.0 | 0.00 | 0.00 | 0.00 | 71 | 1008.1 |
| 20260509211042 | 53 | 247 | 3.0 | 12.0 | 0.00 | 0.00 | 0.00 | 71 | 1008.2 |
| 20260509210540 | 53 | 107 | 2.0 | 12.0 | 0.00 | 0.00 | 0.00 | 71 | 1008.2 |
| 20260509210041 | 53 | 93 | 1.0 | 7.0 | 0.00 | 0.00 | 0.00 | 71 | 1008.3 |
| 20260509205539 | 53 | 171 | 3.0 | 10.0 | 0.00 | 0.00 | 0.00 | 70 | 1008.3 |
| 20260509205040 | 53 | 223 | 4.0 | 10.0 | 0.00 | 0.00 | 0.00 | 70 | 1008.3 |
| 20260509204538 | 53 | 105 | 2.0 | 9.0 | 0.00 | 0.00 | 0.00 | 69 | 1008.2 |
| 20260509204038 | 53 | 44 | 1.0 | 7.0 | 0.00 | 0.00 | 0.00 | 68 | 1008.3 |
| 20260509203537 | 53 | 98 | 4.0 | 12.0 | 0.00 | 0.00 | 0.00 | 68 | 1008.3 |
| 20260509203037 | 54 | 126 | 3.0 | 12.0 | 0.00 | 0.00 | 0.00 | 68 | 1008.5 |
| 20260509202537 | 54 | 255 | 3.0 | 11.0 | 0.00 | 0.00 | 0.00 | 68 | 1008.4 |
| 20260509202041 | 54 | 254 | 3.0 | 12.0 | 0.00 | 0.00 | 0.00 | 68 | 1008.4 |
| 20260509201537 | 54 | 226 | 5.0 | 12.0 | 0.00 | 0.00 | 0.00 | 66 | 1008.4 |
| 20260509201036 | 55 | 234 | 4.0 | 9.0 | 0.00 | 0.00 | 0.00 | 65 | 1008.3 |
| 20260509200536 | 55 | 163 | 4.0 | 9.0 | 0.00 | 0.00 | 0.00 | 63 | 1008.3 |
| 20260509200040 | 55 | 234 | 2.0 | 7.0 | 0.00 | 0.00 | 0.00 | 63 | 1008.3 |
| 20260509195540 | 55 | 220 | 3.0 | 10.0 | 0.00 | 0.00 | 0.00 | 63 | 1008.3 |
| 20260509195035 | 55 | 225 | 3.0 | 10.0 | 0.00 | 0.00 | 0.00 | 62 | 1008.4 |
| 20260509194536 | 55 | 219 | 2.0 | 10.0 | 0.00 | 0.00 | 0.00 | 62 | 1008.4 |
| 20260509194034 | 55 | 182 | 3.0 | 11.0 | 0.00 | 0.00 | 0.00 | 62 | 1008.5 |
| 20260509193533 | 55 | 130 | 4.0 | 11.0 | 0.00 | 0.00 | 0.00 | 61 | 1008.5 |
| 20260509193033 | 55 | 231 | 3.0 | 10.0 | 0.00 | 0.00 | 0.00 | 61 | 1008.6 |
| 20260509192534 | 55 | 125 | 2.0 | 12.0 | 0.00 | 0.00 | 0.00 | 61 | 1008.5 |
| 20260509192037 | 55 | 248 | 4.0 | 13.0 | 0.00 | 0.00 | 0.00 | 61 | 1008.6 |
| 20260509191533 | 55 | 214 | 2.0 | 13.0 | 0.00 | 0.00 | 0.00 | 61 | 1008.5 |
| 20260509191033 | 55 | 137 | 5.0 | 11.0 | 0.00 | 0.00 | 0.00 | 60 | 1008.6 |
| 20260509190532 | 55 | 214 | 3.0 | 11.0 | 0.00 | 0.00 | 0.00 | 60 | 1008.5 |
| 20260509190031 | 55 | 117 | 4.0 | 9.0 | 0.00 | 0.00 | 0.00 | 58 | 1008.6 |
| 20260509185531 | 55 | 119 | 3.0 | 10.0 | 0.00 | 0.00 | 0.00 | 58 | 1008.8 |
| 20260509185030 | 55 | 230 | 3.0 | 10.0 | 0.00 | 0.00 | 0.00 | 58 | 1008.9 |
| 20260509184538 | 55 | 242 | 3.0 | 11.0 | 0.00 | 0.00 | 0.00 | 59 | 1008.9 |
| 20260509184029 | 55 | 113 | 4.0 | 10.0 | 0.00 | 0.00 | 0.00 | 57 | 1009.0 |
| 20260509183528 | 56 | 217 | 2.0 | 11.0 | 0.00 | 0.00 | 0.00 | 56 | 1009.0 |
| 20260509183028 | 56 | 215 | 4.0 | 11.0 | 0.00 | 0.00 | 0.00 | 55 | 1009.2 |
| 20260509182529 | 56 | 130 | 1.0 | 13.0 | 0.00 | 0.00 | 0.00 | 56 | 1009.2 |
| 20260509182031 | 56 | 232 | 6.0 | 13.0 | 0.00 | 0.00 | 0.00 | 53 | 1009.2 |
| 20260509181528 | 57 | 132 | 6.0 | 12.0 | 0.00 | 0.00 | 0.00 | 52 | 1009.2 |
| 20260509181029 | 57 | 222 | 5.0 | 12.0 | 0.00 | 0.00 | 0.00 | 52 | 1009.2 |
| 20260509180529 | 57 | 248 | 4.0 | 10.0 | 0.00 | 0.00 | 0.00 | 53 | 1009.1 |
| 20260509180028 | 57 | 219 | 3.0 | 11.0 | 0.00 | 0.00 | 0.00 | 51 | 1009.2 |
| 20260509175529 | 57 | 183 | 4.0 | 11.0 | 0.00 | 0.00 | 0.00 | 49 | 1009.2 |
| 20260509175027 | 57 | 276 | 3.0 | 11.0 | 0.00 | 0.00 | 0.00 | 50 | 1009.3 |
| 20260509174533 | 57 | 250 | 4.0 | 11.0 | 0.00 | 0.00 | 0.00 | 52 | 1009.1 |
| 20260509174030 | 57 | 219 | 6.0 | 13.0 | 0.00 | 0.00 | 0.00 | 50 | 1009.2 |
| 20260509173526 | 57 | 261 | 4.0 | 11.0 | 0.00 | 0.00 | 0.00 | 53 | 1009.1 |
| 20260509173025 | 57 | 248 | 3.0 | 7.0 | 0.00 | 0.00 | 0.00 | 55 | 1009.2 |
| 20260509172525 | 57 | 247 | 3.0 | 8.0 | 0.00 | 0.00 | 0.00 | 56 | 1009.3 |
| 20260509172026 | 56 | 248 | 3.0 | 9.0 | 0.00 | 0.00 | 0.00 | 55 | 1009.3 |
| 20260509171525 | 56 | 228 | 4.0 | 8.0 | 0.00 | 0.00 | 0.00 | 56 | 1009.3 |
| 20260509171024 | 56 | 233 | 5.0 | 8.0 | 0.00 | 0.00 | 0.00 | 52 | 1009.4 |
| 20260509170524 | 57 | 239 | 4.0 | 9.0 | 0.00 | 0.00 | 0.00 | 51 | 1009.4 |
| 20260509170024 | 57 | 257 | 4.0 | 9.0 | 0.00 | 0.00 | 0.00 | 50 | 1009.5 |
| 20260509165522 | 57 | 230 | 3.0 | 6.0 | 0.00 | 0.00 | 0.00 | 52 | 1009.5 |
| 20260509165022 | 57 | 240 | 4.0 | 5.0 | 0.00 | 0.00 | 0.00 | 51 | 1009.6 |
| 20260509164522 | 57 | 234 | 2.0 | 5.0 | 0.00 | 0.00 | 0.00 | 49 | 1009.6 |
| 20260509164024 | 57 | 232 | 3.0 | 7.0 | 0.00 | 0.00 | 0.00 | 49 | 1009.6 |
| 20260509163521 | 57 | 254 | 2.0 | 8.0 | 0.00 | 0.00 | 0.00 | 49 | 1009.7 |
| 20260509163028 | 57 | 245 | 4.0 | 7.0 | 0.00 | 0.00 | 0.00 | 49 | 1009.8 |
| 20260509162520 | 57 | 254 | 4.0 | 7.0 | 0.00 | 0.00 | 0.00 | 47 | 1009.8 |
| 20260509162020 | 58 | 238 | 4.0 | 7.0 | 0.00 | 0.00 | 0.00 | 47 | 1009.9 |
| 20260509161519 | 59 | 254 | 3.0 | 6.0 | 0.00 | 0.00 | 0.00 | 46 | 1009.9 |
| 20260509161020 | 59 | 225 | 3.0 | 9.0 | 0.00 | 0.00 | 0.00 | 46 | 1009.9 |
| 20260509160518 | 59 | 250 | 4.0 | 7.0 | 0.00 | 0.00 | 0.00 | 46 | 1010.0 |
| 20260509160019 | 59 | 244 | 4.0 | 8.0 | 0.00 | 0.00 | 0.00 | 44 | 1010.1 |
| 20260509155516 | 60 | 247 | 5.0 | 8.0 | 0.00 | 0.00 | 0.00 | 42 | 1010.2 |
| 20260509155020 | 61 | 277 | 2.0 | 8.0 | 0.00 | 0.00 | 0.00 | 39 | 1010.2 |
| 20260509154515 | 61 | 219 | 3.0 | 8.0 | 0.00 | 0.00 | 0.00 | 37 | 1010.3 |
| 20260509154018 | 61 | 164 | 2.0 | 5.0 | 0.00 | 0.00 | 0.00 | 39 | 1010.4 |
| 20260509153512 | 60 | 328 | 1.0 | 7.0 | 0.00 | 0.00 | 0.00 | 38 | 1010.5 |
| 20260509153014 | 60 | 118 | 3.0 | 7.0 | 0.00 | 0.00 | 0.00 | 38 | 1010.7 |
| 20260509152510 | 59 | 216 | 3.0 | 6.0 | 0.00 | 0.00 | 0.00 | 39 | 1010.8 |
| 20260509152014 | 59 | 207 | 1.0 | 12.0 | 0.00 | 0.00 | 0.00 | 44 | 1010.8 |
| 20260509151508 | 59 | 69 | 3.0 | 9.0 | 0.00 | 0.00 | 0.00 | 37 | 1010.9 |
| 20260509151007 | 58 | 205 | 3.0 | 9.0 | 0.00 | 0.00 | 0.00 | 40 | 1011.0 |
| 20260509150508 | 58 | 207 | 3.0 | 7.0 | 0.00 | 0.00 | 0.00 | 40 | 1011.0 |
| 20260509150006 | 58 | 249 | 2.0 | 7.0 | 0.00 | 0.00 | 0.00 | 38 | 1011.0 |
| 20260509145507 | 58 | 244 | 3.0 | 9.0 | 0.00 | 0.00 | 0.00 | 39 | 1011.0 |
| 20260509145005 | 58 | 233 | 4.0 | 9.0 | 0.00 | 0.00 | 0.00 | 43 | 1011.0 |
| 20260509144503 | 58 | 217 | 4.0 | 10.0 | 0.00 | 0.00 | 0.00 | 41 | 1011.0 |
| 20260509144003 | 58 | 230 | 3.0 | 10.0 | 0.00 | 0.00 | 0.00 | 42 | 1011.1 |
| 20260509143502 | 57 | 206 | 4.0 | 8.0 | 0.00 | 0.00 | 0.00 | 43 | 1011.2 |
| 20260509143003 | 57 | 186 | 3.0 | 13.0 | 0.00 | 0.00 | 0.00 | 40 | 1011.2 |
| 20260509142503 | 57 | 161 | 5.0 | 13.0 | 0.00 | 0.00 | 0.00 | 41 | 1011.3 |
| 20260509142100 | 57 | 117 | 2.0 | 12.0 | 0.00 | 0.00 | 0.00 | 44 | 1011.3 |
| 20260509141608 | 57 | 247 | 5.0 | 12.0 | 0.00 | 0.00 | 0.00 | 42 | 1011.3 |
| 20260509141102 | 56 | 209 | 3.0 | 16.0 | 0.00 | 0.00 | 0.00 | 43 | 1011.3 |
| 20260509140558 | 56 | 225 | 5.0 | 16.0 | 0.00 | 0.00 | 0.00 | 42 | 1011.2 |
| 20260509140104 | 56 | 250 | 3.0 | 13.0 | 0.00 | 0.00 | 0.00 | 43 | 1011.3 |
| 20260509135601 | 56 | 216 | 4.0 | 13.0 | 0.00 | 0.00 | 0.00 | 43 | 1011.3 |
| 20260509135057 | 56 | 227 | 4.0 | 9.0 | 0.00 | 0.00 | 0.00 | 42 | 1011.3 |
| 20260509134557 | 56 | 257 | 3.0 | 7.0 | 0.00 | 0.00 | 0.00 | 43 | 1011.3 |
| 20260509134054 | 56 | 153 | 2.0 | 8.0 | 0.00 | 0.00 | 0.00 | 44 | 1011.3 |
| 20260509133553 | 56 | 122 | 4.0 | 12.0 | 0.00 | 0.00 | 0.00 | 43 | 1011.3 |
| 20260509133053 | 55 | 241 | 3.0 | 12.0 | 0.00 | 0.00 | 0.00 | 44 | 1011.3 |
| 20260509132552 | 55 | 227 | 3.0 | 10.0 | 0.00 | 0.00 | 0.00 | 45 | 1011.3 |
| 20260509132051 | 54 | 229 | 4.0 | 14.0 | 0.00 | 0.00 | 0.00 | 47 | 1011.4 |
| 20260509131549 | 54 | 234 | 4.0 | 14.0 | 0.00 | 0.00 | 0.00 | 45 | 1011.6 |
| 20260509131048 | 54 | 220 | 4.0 | 10.0 | 0.00 | 0.00 | 0.00 | 47 | 1011.6 |
| 20260509130551 | 54 | 226 | 3.0 | 8.0 | 0.00 | 0.00 | 0.00 | 50 | 1011.7 |
| 20260509130049 | 53 | 162 | 3.0 | 11.0 | 0.00 | 0.00 | 0.00 | 49 | 1011.8 |
| 20260509125543 | 53 | 228 | 4.0 | 13.0 | 0.00 | 0.00 | 0.00 | 48 | 1011.8 |
| 20260509125043 | 52 | 266 | 3.0 | 8.0 | 0.00 | 0.00 | 0.00 | 53 | 1011.8 |
| 20260509124541 | 52 | 135 | 2.0 | 9.0 | 0.00 | 0.00 | 0.00 | 48 | 1011.9 |
| 20260509124039 | 51 | 239 | 2.0 | 9.0 | 0.00 | 0.00 | 0.00 | 52 | 1012.0 |
| 20260509123538 | 51 | 171 | 3.0 | 6.0 | 0.00 | 0.00 | 0.00 | 51 | 1012.0 |
| 20260509123045 | 51 | 219 | 1.0 | 5.0 | 0.00 | 0.00 | 0.00 | 54 | 1012.0 |
| 20260509122534 | 50 | 244 | 2.0 | 4.0 | 0.00 | 0.00 | 0.00 | 55 | 1012.0 |
| 20260509122034 | 49 | 238 | 1.0 | 4.0 | 0.00 | 0.00 | 0.00 | 60 | 1011.9 |
| 20260509121531 | 48 | 238 | 1.0 | 7.0 | 0.00 | 0.00 | 0.00 | 56 | 1011.9 |
| 20260509121030 | 48 | 231 | 2.0 | 5.0 | 0.00 | 0.00 | 0.00 | 58 | 1011.9 |
| 20260509120531 | 48 | 227 | 2.0 | 5.0 | 0.00 | 0.00 | 0.00 | 59 | 1011.9 |
| 20260509120028 | 47 | 166 | 1.0 | 3.0 | 0.00 | 0.00 | 0.00 | 57 | 1011.9 |
| 20260509115528 | 46 | 188 | 1.0 | 4.0 | 0.00 | 0.00 | 0.00 | 58 | 1012.0 |
| 20260509115031 | 45 | 219 | 1.0 | 4.0 | 0.00 | 0.00 | 0.00 | 60 | 1012.0 |
| 20260509114525 | 45 | 121 | 1.0 | 5.0 | 0.00 | 0.00 | 0.00 | 61 | 1012.0 |
| 20260509114021 | 44 | 140 | 1.0 | 4.0 | 0.00 | 0.00 | 0.00 | 64 | 1012.0 |
| 20260509113520 | 43 | 138 | 1.0 | 3.0 | 0.00 | 0.00 | 0.00 | 65 | 1012.1 |
| 20260509113019 | 42 | 205 | 1.0 | 2.0 | 0.00 | 0.00 | 0.00 | 66 | 1012.1 |
| 20260509112518 | 41 | 209 | 0.0 | 2.0 | 0.00 | 0.00 | 0.00 | 68 | 1012.1 |
| 20260509112018 | 41 | 211 | 1.0 | 3.0 | 0.00 | 0.00 | 0.00 | 69 | 1012.1 |
| 20260509111529 | 40 | 211 | 1.0 | 3.0 | 0.00 | 0.00 | 0.00 | 70 | 1012.0 |
| 20260509111018 | 39 | 211 | 0.0 | 2.0 | 0.00 | 0.00 | 0.00 | 70 | 1012.0 |
| 20260509110518 | 39 | 211 | 1.0 | 2.0 | 0.00 | 0.00 | 0.00 | 72 | 1012.0 |
| 20260509110018 | 38 | 211 | 0.0 | 2.0 | 0.00 | 0.00 | 0.00 | 73 | 1012.1 |
| 20260509105517 | 38 | 211 | 0.0 | 3.0 | 0.00 | 0.00 | 0.00 | 73 | 1012.0 |
| 20260509105016 | 38 | 211 | 1.0 | 2.0 | 0.00 | 0.00 | 0.00 | 74 | 1012.1 |
| 20260509104525 | 37 | 211 | 1.0 | 2.0 | 0.00 | 0.00 | 0.00 | 76 | 1012.1 |
| 20260509104014 | 37 | 211 | 0.0 | 2.0 | 0.00 | 0.00 | 0.00 | 74 | 1012.1 |
| 20260509103514 | 37 | 211 | 0.0 | 2.0 | 0.00 | 0.00 | 0.00 | 74 | 1012.0 |
| 20260509103012 | 38 | 211 | 1.0 | 2.0 | 0.00 | 0.00 | 0.00 | 73 | 1011.9 |
| 20260509102513 | 38 | 211 | 0.0 | 1.0 | 0.00 | 0.00 | 0.00 | 72 | 1011.9 |
| 20260509102010 | 38 | 211 | 0.0 | 1.0 | 0.00 | 0.00 | 0.00 | 71 | 1011.8 |
| 20260509101510 | 38 | 211 | 0.0 | 2.0 | 0.00 | 0.00 | 0.00 | 68 | 1011.8 |
| 20260509101009 | 38 | 211 | 1.0 | 2.0 | 0.00 | 0.00 | 0.00 | 68 | 1011.8 |
| 20260509100508 | 38 | 211 | 1.0 | 2.0 | 0.00 | 0.00 | 0.00 | 68 | 1011.7 |
| 20260509100010 | 38 | 211 | 0.0 | 2.0 | 0.00 | 0.00 | 0.00 | 68 | 1011.7 |
| 20260509095506 | 38 | 211 | 1.0 | 2.0 | 0.00 | 0.00 | 0.00 | 68 | 1011.6 |
| 20260509095006 | 38 | 211 | 0.0 | 2.0 | 0.00 | 0.00 | 0.00 | 68 | 1011.6 |
| 20260509094504 | 38 | 211 | 0.0 | 2.0 | 0.00 | 0.00 | 0.00 | 67 | 1011.6 |
| 20260509094004 | 38 | 211 | 0.0 | 2.0 | 0.00 | 0.00 | 0.00 | 67 | 1011.5 |
| 20260509093503 | 38 | 211 | 0.0 | 1.0 | 0.00 | 0.00 | 0.00 | 67 | 1011.5 |
| 20260509093005 | 39 | 211 | 0.0 | 2.0 | 0.00 | 0.00 | 0.00 | 67 | 1011.4 |
| 20260509092503 | 38 | 211 | 0.0 | 2.0 | 0.00 | 0.00 | 0.00 | 67 | 1011.3 |
| 20260509092004 | 38 | 211 | 0.0 | 2.0 | 0.00 | 0.00 | 0.00 | 68 | 1011.3 |
| 20260509091502 | 38 | 211 | 0.0 | 2.0 | 0.00 | 0.00 | 0.00 | 68 | 1011.2 |
| 20260509091002 | 38 | 212 | 0.0 | 2.0 | 0.00 | 0.00 | 0.00 | 69 | 1011.3 |
| 20260509090503 | 38 | 212 | 0.0 | 3.0 | 0.00 | 0.00 | 0.00 | 70 | 1011.3 |
| 20260509090001 | 38 | 213 | 1.0 | 2.0 | 0.00 | 0.00 | 0.00 | 70 | 1011.3 |
| 20260509085600 | 38 | 213 | 0.0 | 2.0 | 0.00 | 0.00 | 0.00 | 71 | 1011.3 |